Tracking 22879 objects as of 21-Apr-2021
HD Live streaming from Space Station
objects crossing your sky now

COSMOS 826

Track COSMOS 826 now!
10-day predictions
COSMOS 826 is classified as:


NORAD ID: 8890
Int'l Code: 1976-054B
Perigee: 1,488.5 km
Apogee: 1,551.5 km
Inclination: 74.0 °
Period: 116.3 minutes
Semi major axis: 7891 km
RCS: 0.6963 m2 (medium)
Launch date: June 15, 1976
Source: Commonwealth of Independent States (former USSR) (CIS)
Launch site: PLESETSK MISSILE AND SPACE COMPLEX (PKMTR)
aabbcc
Your satellite tracking list
Your tracking list is empty




NASA's NSSDC Master Catalog

Two Line Element Set (TLE):
1 08890U 76054B   21110.87206448 -.00000027  00000-0 -84945-4 0  9996
2 08890  74.0046  13.5057 0039907 319.8700 106.3682 12.38520686 27708
Source of the keplerian elements: AFSPC